Regional Weather Roundup
Issued by NWS

Home | Current Version | Previous Version | Text Only | Print | Product List | Glossary On
Versions: 1 2 3 4 5 6 7 8 9 10 11 12 13 14 15 16 17 18 19 20 21 22 23 24 25 26 27 28 29 30 31 32 33 34 35 36 37 38 39 40 41 42 43 44 45 46 47 48 49 50
000
ASUS43 KMPX 270510
RWRMN
WEATHER ROUNDUP FOR MINNESOTA
NATIONAL WEATHER SERVICE TWIN CITIES/CHANHASSEN MN
1200 AM CDT TUE OCT 27 2020


NOTE: "FAIR" INDICATES FEW OR NO CLOUDS BELOW 12,000 FEET WITH NO
SIGNIFICANT WEATHER AND/OR OBSTRUCTIONS TO VISIBILITY. N/A MEANS
CURRENT SKY AND/OR WEATHER CONDITIONS ARE NOT AVAILABLE.

MNZ060>063-068>070-270600-
   Twin Cities Metro

CITY           SKY/WX    TMP DP  RH WIND       PRES   REMARKS
TWIN CITIES    PTCLDY    22  15  75 W6        30.37R WCI  14
ST PAUL        CLEAR     23  13  65 W7        30.38S WCI  15
CRYSTAL        CLEAR     21  13  71 W6        30.35S WCI  13
BLAINE         CLEAR     23  16  74 SW5       30.35S WCI  17
LAKEVILLE      PTCLDY    19  14  79 W5        30.37R WCI  13
EDEN PRAIRIE   CLEAR     19  13  77 SW5       30.36R WCI  12
SOUTH ST PAUL  CLEAR     23  14  70 W5        30.37R WCI  16
LAKE ELMO      FAIR      18  14  86 CALM      30.37R
$$
MNZ001>005-007-008-013>017-022>024-027-028-270600-
   Northwest Minnesota

CITY           SKY/WX    TMP DP  RH WIND       PRES   REMARKS
BEMIDJI        CLEAR     15   8  73 S5        30.19F WCI   8
HALLOCK        CLEAR     18  12  79 S15       30.09F WCI   3
ROSEAU         CLEAR     18 N/A N/A S12       30.11F WCI   5
WARROAD        CLEAR     18  10  73 SW9       30.10F WCI   6
THIEF RVR FALL CLEAR     16  10  77 SW18G28   30.15F WCI   0
FOSSTON        CLEAR     12   7  79 S16       30.19F WCI  -4
DETROIT LAKES  CLEAR     19  10  68 SW13G20   30.23F WCI   7
MOORHEAD       CLEAR     18   5  57 S15G21    30.24F WCI   3
PARK RAPIDS    CLEAR     10   5  80 S9        30.22F WCI  -3
MAHNOMEN       FAIR      14   7  74 S14       30.20F WCI  -1
$$
MNZ006-009>011-018-025>026-270600-
   North Central Minnesota

CITY           SKY/WX    TMP DP  RH WIND       PRES   REMARKS
BAUDETTE       CLEAR     18  11  74 S10       30.14F WCI   6
FLAG ISLAND      N/A     21  12  68 SW16G28   30.09F WCI   7
INTL FALLS     CLEAR     14   8  77 SW6       30.16F WCI   5
WASKISH          N/A     18   9  68 S5        30.17F WCI  11
BIG FORK       CLEAR     19   9  63 SW8       30.24F WCI   9
LONGVILLE      CLEAR     19  12  73 S7        30.24F WCI  10
GRAND RAPIDS   CLEAR     17   9  70 S6        30.25F WCI   9
CRANE LAKE     CLEAR     19  12  73 CALM      30.22F
ORR            CLEAR     18  10  73 S3        30.17F
COOK           CLEAR     18  10  73 S5        30.20F WCI  11
WALKER         FAIR      16  12  85 S8        30.22S WCI   5
$$
MNZ012-019>021-037-270600-
   Northeast Minnesota

CITY           SKY/WX    TMP DP  RH WIND       PRES   REMARKS
DULUTH         PTCLDY    17   8  67 SW3       30.24F
ELY            CLEAR     18  10  73 SW3       30.20F
HIBBING        CLEAR     12   8  84 S3        30.23F
EVELETH        CLEAR     17  10  77 S6        30.23F WCI   8
DULUTH HARBOR  CLEAR     25  14  63 S9        30.31F WCI  15
TWO HARBORS    CLEAR     16  10  79 CALM      30.26F
SILVER BAY     CLEAR     12   9  85 CALM      30.26F
GRAND MARAIS     N/A     26  12  55 VRB5      30.27F WCI  20
G MARAIS ARPRT MOCLDY    18  10  73 SW5       30.19F WCI  11
$$
MNZ029>031-032-039>041-046>048-054>057-064-270600-
   West Central Minnesota

CITY           SKY/WX    TMP DP  RH WIND       PRES   REMARKS
FERGUS FALLS   CLEAR     10   9  92 S10       30.32F WCI  -3
WHEATON        CLEAR     12   9  85 S9        30.30F WCI   0
ALEXANDRIA     CLEAR     12   9  87 SW9       30.30S WCI   0
ELBOW LAKE     FAIR       4   2  91 S10       30.29F WCI -11
WADENA         CLEAR      9   7  92 SW6       30.25F WCI  -1
GLENWOOD       CLEAR    N/A N/A N/A SW5       30.30F
APPLETON       CLEAR     12   9  85 SW5       30.33F WCI   4
BENSON         CLEAR     12  10  92 W5        30.33F WCI   4
ORTONVILLE     CLEAR     12  10  92 S5        30.30F VSB 1   WCI   4
MADISON        CLEAR     12   9  85 SW6       30.36R WCI   3
WILLMAR        FAIR      16  10  79 SW7       30.36F WCI   6
$$
MNZ033>034-036-042>043-049>051-058-059-270600-
   Central Minnesota

CITY           SKY/WX    TMP DP  RH WIND       PRES   REMARKS
ST CLOUD       CLEAR     16  11  80 S3        30.33S
SAUK CENTRE    FAIR      10   8  92 SW3       30.32S
PAYNESVILLE    CLEAR     16  16 100 SW3       30.32F
AITKIN         CLEAR     16  10  79 CALM      30.26F
PINE RIVER     CLEAR     16  10  79 S3        30.28F
BRAINERD       CLEAR     15   9  76 S6        30.29F WCI   6
STAPLES        CLEAR     12  10  92 S6        30.27F WCI   3
LONG PRAIRIE   FAIR       9   7  92 SW5       30.30S WCI   0
CAMP RIPLEY    FAIR      12   9  87 S5        30.31F WCI   4
LITCHFIELD     CLEAR     18  16  93 CALM      30.35F
BUFFALO        CLEAR     19  14  84 MISG      30.36F
MAPLE LAKE       N/A     19  16  88 SW3       30.35F
HUTCHINSON       N/A     14  13  95 SW3       30.36F
$$
MNZ037-044-045-052-053-270600-
   East Central Minnesota

CITY           SKY/WX    TMP DP  RH WIND       PRES   REMARKS
PRINCETON      CLEAR     19  12  73 CALM      30.34S
MORA           CLEAR     19  12  73 SW3       30.34S
CAMBRIDGE      CLEAR     19  10  68 CALM      30.35S
MOOSE LAKE     MOCLDY    19  12  73 SW5       30.28S WCI  13
HINCKLEY       FAIR      19  12  73 SW5       30.32S WCI  13
CLOQUET        CLEAR     19  10  68 SW3       30.26F
MCGREGOR       CLEAR     19  14  79 SW3       30.28F
$$
MNZ071>073-080-081-089-090-097-098-270600-
   Southwest Minnesota

CITY           SKY/WX    TMP DP  RH WIND       PRES   REMARKS
MONTEVIDEO     CLEAR     12   9  85 SW8       30.35S WCI   1
GRANITE FALLS  CLEAR      9   7  92 S10       30.37S WCI  -5
CANBY          CLEAR     15  12  86 SW5       30.34S WCI   8
MARSHALL       CLEAR     13  10  88 SW8       30.35F WCI   2
REDWOOD FALLS  CLEAR     13   8  81 SW7       30.36F WCI   3
OLIVIA         CLEAR     10   9  92 SW7       30.35F WCI   0
PIPESTONE      FOG        5   1  85 MISG      30.33S VSB 1/4
WINDOM         PTCLDY    10   9  92 CALM      30.35S
WORTHINGTON    PTCLDY    15  13  91 SW9       30.36S WCI   3
JACKSON        MOCLDY    19  16  86 SW3       30.36S
TRACY          CLEAR     14   9  83 SW8       30.35S WCI   2
SLAYTON        PTCLDY     9   6  88 SW7       30.35S WCI  -2
$$
MNZ065>067-074>077-082>085-091>093-270600-
   South Central Minnesota

CITY           SKY/WX    TMP DP  RH WIND       PRES   REMARKS
MANKATO        PTCLDY    16  15  96 SW3       30.37F
NEW ULM        PTCLDY    14  10  85 SW5       30.37F WCI   6
ST JAMES         N/A     14  10  85 SW6       30.37S WCI   5
FAIRMONT       MOCLDY    19  16  88 W6        30.38F WCI  11
GLENCOE        CLEAR     15  12  90 CALM      30.35F
FARIBAULT      MOCLDY    21  18  86 W3        30.36F
OWATONNA       MOCLDY    19  16  86 SW3       30.35F
WASECA         MOCLDY    19  18  93 CALM      30.38F
ALBERT LEA     MOCLDY    19  18  93 CALM      30.35F
$$
MNZ078>079-086>088-094>096-270600-
   Southeast Minnesota

CITY           SKY/WX    TMP DP  RH WIND       PRES   REMARKS
ROCHESTER      MOCLDY    19  13  77 SW3       30.35S
RED WING       PTCLDY    16  12  86 CALM      30.37R
STANTON        PTCLDY    13  10  87 SW3       30.36S
DODGE CENTER   MOCLDY    18  14  86 SW5       30.35S WCI  11
WINONA         PTCLDY    25  18  74 CALM      30.39S
AUSTIN         MOCLDY    21  18  86 CALM      30.35F
PRESTON        MOCLDY    20  14  79 W3        30.35F
$$
ABBREVIATIONS USED IN REMARKS
   TC - TEMPERATURES IN CELSIUS
  WCI - WIND CHILL INDEX
   HX - HEAT INDEX
  VSB - VISIBILITY
$$




USA.gov is the U.S. government's official web portal to all federal, state and local government web resources and services.